SCP
0 0 0 0 0 0 0 0 0 0 0 0 0 0 0 0 0 0 0 0 0 0 0 0 -0 0 -0 0 0 0 0 0 -0 -0 -0 -0 -0 -0 -0 -0 0 0 0 0 0 0 0
0 0 0 0 0 0 0 0 0 0 0 0 0 0 0 0 0 0 0 0 0 0 -0 -0 -0 0 -0 0 0 0 0 0 0 -0 -0 -0 -0 -0 0 0 0 0 0 0 0 0 0
0 0 0 0 -0 -0 0 -0 -0 -0 0 0 0 0 0 -0 0 0 0 0 0 0 -0 0 -0 -0 -0 0 0 0 0 -0 -0 -0 -0 -0 0 0 -0 0 0 0 0 0 0 0 0
0 0 0 0 0 -0 -0 0 -0 -0 -0 -0 0 -0 -0 -0 0 0 0 0 0 0 0 -0 -0 -0 0 0 0 0 -0 -0 -0 -0 0 0 -0 -0 0 0 0 -0 -0 -0 0 0 0
0 0 0 -0 -0 -0 -0 0 0 -0 -0 0 0 0 0 0 0 0 0 0 0 -0 -0 -0 -0 -0 -0 0 -0 -0 -0 -0 -0 -0 -0 -0 -0 -0 0 -0 0 0 0 0 0 0 0
-0 -0 -0 -0 -0 -0 -0 -0 -0 -0 -0 -0 0 0 0 0 0 0 0 -0 0 -0 -0 -0 0 -0 -0 0 0 -0 0 -0 -0 -0 -0 0 0 0 0 0 0 0 0 0 0 0 -0
-0 -0 -0 -0 -0 -0 -0 -0 -0 -0 -0 -0 -0 -0 -0 0 0 -0 0 -0 -0 -0 -0 -0 0 -0 -0 0 0 0 0 0 -0 0 0 0 0 0 0 0 0 0 0 0 0 0 -0
-0 -0 -0 -0 -0 -0 -0 -0 -0 -0 -0 -0 -0 -0 -0 -0 0 -0 -0 0 0 0 0 -0 -0 -0 0 -0 0 -0 0 0 -0 0 -0 0 -0 0 0 0 0 0 -0 0 0 0 0
-0 -0 -0 -0 -0 -0 -0 -0 -0 -0 -0 -0 -0 -0 -0 -0 0 -0 -0 -0 0 0 0 -0 0 0 -0 0 -0 -0 0 0 0 0 0 0 0 0 0 0 0 0 0 0 0 0 0
-0 -0 -0 -0 -0 -0 -0 -0 -0 -0 -0 -0 -0 -0 -0 -0 0 -0 -0 0 -0 0 0 -0 0 0 -0 0 0 0 -0 -0 0 0 0 0 0 0 0 0 0 0 0 0 0 0 0
-0 -0 -0 -0 -0 -0 -0 -0 -0 -0 -0 -0 -0 -0 -0 -0 -0 -0 -0 -0 -0 0 -0 -0 -0 0 0 0 -0 -0 0 0 0 0 0 0 0 0 0 0 0 0 0 0 0 0 0
-0 -0 -0 -0 -0 -0 -0 -0 -0 -0 -0 -0 -0 -0 -0 0 -0 -0 -0 -0 0 -0 0 0 0 -0 -0 0 0 0 -0 0 0 0 0 0 0 0 0 0 0 0 -0 -0 0 0 0
-0 -0 -0 -0 -0 -0 -0 -0 -0 -0 -0 -0 -0 -0 0 0 0 0 0 -0 -0 0 0 0 0 0 0 0 0 0 0 0 0 0 0 0 0 0 0 0 0 0 -0 0 0 -0 0
-0 -0 -0 -0 -0 -0 -0 -0 -0 -0 -0 -0 -0 0 0 -0 0 0 0 -0 0 0 -0 0 0 0 0 0 0 0 0 -0 0 0 0 0 0 0 0 0 0 0 0 0 -0 0 0
0 0 0 -0 -0 -0 -0 -0 -0 -0 -0 -0 -0 0 0 0 -0 0 -0 -0 -0 0 0 0 0 0 0 0 0 0 0 -0 0 0 0 0 0 0 0 0 0 0 0 0 0 0 0
0 0 0 0 -0 -0 -0 -0 -0 -0 -0 -0 0 0 0 0 0 0 0 -0 0 0 0 0 0 0 -0 0 0 0 -0 0 0 0 0 0 0 0 0 0 0 0 0 0 0 0 0
0 0 0 0 0 -0 -0 -0 -0 -0 -0 -0 0 0 0 0 0 0 0 -0 0 0 0 0 0 0 0 0 0 -0 0 0 0 0 0 0 0 0 0 0 0 0 0 0 0 0 0
0 0 0 0 0 -0 -0 -0 -0 -0 -0 0 -0 -0 0 0 0 0 0 -0 0 0 0 0 0 0 0 0 0 0 0 0 0 0 0 0 0 0 0 0 0 0 0 0 0 0 0
0 0 0 0 0 -0 -0 -0 -0 -0 0 0 -0 0 0 0 0 -0 0 0 0 0 0 0 0 0 0 0 0 0 0 0 0 0 0 0 0 0 0 0 0 0 0 0 0 0 0
0 0 0 0 0 0 -0 -0 -0 -0 -0 0 0 -0 0 0 0 0 0 0 0 0 0 0 0 0 0 0 0 0 0 0 0 0 0 0 0 0 0 0 0 0 0 0 0 0 0
0 0 0 0 0 0 0 -0 -0 -0 -0 0 0 0 0 0 0 0 0 0 0 0 0 0 0 0 0 0 0 0 0 0 0 0 0 0 0 0 0 0 0 0 0 0 0 0 0
0 0 0 0 0 0 0 0 -0 -0 -0 0 0 0 0 -0 0 0 0 0 0 0 0 0 0 0 0 0 0 0 0 0 0 0 0 0 0 0 0 0 0 0 0 0 0 0 0
0 0 0 0 0 0 0 0 0 -0 -0 -0 0 0 0 -0 0 0 0 0 0 0 0 0 0 0 0 0 0 0 0 0 0 0 0 0 0 0 0 0 0 0 0 0 0 0 0
0 0 0 0 0 0 0 0 0 -0 -0 -0 0 0 0 0 0 0 0 0 0 0 0 0 0 0 0 0 0 0 0 0 0 0 0 0 0 0 0 0 0 0 0 0 0 0 0
0 0 0 0 0 0 0 0 0 0 -0 -0 0 0 0 0 0 0 0 0 0 0 0 0 0 0 0 0 0 0 0 0 0 0 0 0 0 0 0 0 0 0 0 0 0 0 0
0 0 0 0 0 0 0 0 0 0 -0 -0 -0 0 0 -0 0 0 0 0 0 0 0 0 0 0 0 0 0 0 0 0 0 0 0 0 0 0 0 0 0 0 0 0 0 0 0
0 0 0 0 0 -0 0 0 -0 -0 0 -0 0 0 0 -0 0 0 0 0 0 0 0 0 0 0 0 0 0 -0 0 0 0 0 0 0 0 0 0 0 0 0 0 0 0 0 0
0 0 0 0 -0 -0 0 0 -0 -0 0 -0 -0 0 0 -0 0 0 0 0 0 0 0 0 0 0 0 0 0 0 0 0 0 0 0 0 0 0 0 0 0 0 0 0 0 1 0
0 0 0 -0 -0 -0 0 0 -0 -0 0 -0 -0 0 0 0 0 0 -0 -0 0 0 0 0 0 0 0 0 0 0 -0 0 0 0 0 0 0 0 0 0 0 0 0 0 0 0 0
Wind_Speed_500mb
43 44 45 46 46 45 44 43 42 40 38 35 32 28 25 23 23 23 24 24 24 23 23 22 20 19 18 16 19 7 9 14 24 28 27 26 32 35 27 28 26 28 29 28 24 24 20
42 42 45 46 46 45 43 43 44 41 37 34 31 27 24 22 20 20 21 21 21 21 21 20 21 20 14 24 7 10 16 19 18 22 25 28 22 30 20 28 26 16 28 28 22 24 21
41 42 43 44 45 46 45 43 42 41 39 35 30 27 23 21 20 18 18 19 20 20 20 20 23 18 16 17 16 18 22 18 18 17 18 22 19 19 16 15 23 20 23 25 26 27 19
46 46 45 45 45 46 46 45 42 40 39 37 32 27 23 20 18 17 17 17 19 19 22 21 17 9 16 15 17 24 23 16 18 13 5 11 18 23 19 11 15 26 27 27 27 4 19
52 52 51 50 48 46 46 46 44 40 37 35 32 27 23 18 15 14 14 15 20 22 17 13 4 10 13 16 21 28 27 22 17 15 13 10 18 28 22 24 26 19 28 23 22 8 11
54 55 55 56 55 54 51 47 44 41 37 33 30 27 23 18 15 12 12 18 16 13 10 8 11 13 17 26 22 32 29 15 21 18 19 23 23 25 27 27 20 20 17 11 16 20 20
54 56 57 58 58 57 55 52 48 44 39 32 27 24 21 17 14 10 12 14 7 8 22 26 20 20 27 19 24 32 32 25 16 26 27 32 28 12 25 21 23 14 14 16 8 10 22
54 55 56 57 58 58 57 56 53 49 42 35 27 22 20 18 15 10 9 9 12 14 19 27 19 18 12 22 31 31 31 28 23 32 16 17 15 19 8 12 18 18 23 25 9 6 16
53 54 56 58 58 58 58 57 55 52 47 38 29 22 20 18 15 14 14 18 14 17 17 22 23 26 27 31 35 35 35 32 24 21 20 16 25 9 10 10 15 22 17 28 20 10 19
55 56 57 57 59 60 60 60 58 54 50 41 30 22 18 15 10 9 19 10 14 15 12 27 26 14 24 23 12 13 32 26 11 18 20 9 17 7 13 16 5 24 17 18 21 25 26
57 58 59 60 61 62 62 61 61 59 52 43 34 22 19 16 16 14 5 11 14 6 9 37 22 14 17 28 29 21 23 23 28 13 6 5 17 17 17 10 17 28 19 22 25 27 30
59 60 61 61 62 63 64 63 62 62 56 46 35 22 22 20 21 20 15 15 14 15 9 15 20 21 26 19 16 17 26 22 13 13 14 18 8 8 12 15 15 21 28 28 27 26 26
62 63 63 65 66 66 67 66 64 63 60 47 34 22 26 26 7 9 11 15 15 29 6 23 20 21 29 16 16 18 25 26 24 23 30 24 26 12 11 22 22 23 27 23 23 25 29
64 65 65 66 68 70 70 69 66 63 62 48 33 25 23 31 18 14 13 19 29 33 34 17 8 13 21 18 22 14 22 27 17 29 28 22 22 24 14 10 18 17 14 20 33 25 2
64 66 67 67 69 72 73 73 70 65 63 48 34 16 16 17 26 20 22 23 33 29 11 13 15 19 25 16 16 18 28 29 10 9 24 25 21 17 7 5 10 8 19 12 18 32 26
64 66 68 69 70 72 74 75 74 67 64 51 22 15 14 16 19 16 20 32 27 1 8 9 25 14 23 21 21 22 26 10 8 7 11 6 20 18 16 12 21 21 19 14 20 23 34
65 67 69 72 73 71 72 75 75 71 63 45 9 15 5 12 14 26 22 32 28 14 10 15 24 29 15 26 12 29 15 18 10 16 12 7 12 13 9 22 26 19 22 17 17 20 24
65 66 68 70 72 72 71 73 75 74 63 46 13 10 2 15 21 31 27 35 14 17 17 21 16 30 22 15 18 21 19 10 15 12 20 6 9 21 29 7 8 21 28 25 18 26 16
62 64 66 68 70 72 71 69 71 70 65 61 23 14 2 9 20 24 32 33 16 23 18 19 18 22 14 18 15 19 12 4 15 15 7 12 14 18 32 23 15 21 22 21 20 20 31
60 61 62 65 66 69 72 70 66 65 52 38 21 8 4 15 17 19 27 18 24 27 20 20 19 13 15 21 15 13 16 15 17 21 16 2 19 24 26 33 14 18 26 26 25 22 28
59 59 59 60 62 65 68 70 66 66 48 30 16 8 7 14 11 15 20 25 30 27 21 15 20 22 23 22 22 24 23 19 16 18 15 16 25 29 33 35 33 29 30 33 34 34 34
57 57 57 57 58 59 62 66 67 64 56 18 23 16 28 34 18 19 17 23 26 26 6 15 24 28 29 30 26 26 26 22 20 30 23 25 25 29 36 35 37 38 35 40 38 36 34
57 56 54 54 55 56 58 60 63 62 59 22 28 18 22 29 13 13 6 10 17 11 23 33 31 21 26 26 24 32 30 14 15 18 24 26 26 25 35 37 38 35 27 38 38 39 33
56 55 54 52 51 52 54 56 57 58 54 33 25 22 20 18 12 10 13 18 20 22 24 30 25 23 24 20 18 20 24 24 24 27 27 28 28 26 30 36 41 29 34 27 25 34 32
58 56 53 51 51 51 51 52 54 55 53 46 23 12 18 16 30 15 10 16 20 19 20 18 16 12 19 22 19 27 25 29 37 39 34 31 22 28 28 32 42 37 23 24 30 31 29
59 58 56 50 48 49 52 52 52 54 55 50 24 13 12 20 22 22 21 20 14 15 16 15 3 11 11 15 21 30 28 29 15 22 24 19 20 20 30 40 42 31 30 28 20 27 23
57 56 53 52 46 45 49 54 53 55 55 51 18 12 8 24 11 19 18 17 19 17 14 15 4 15 8 16 20 24 25 24 20 30 17 17 23 28 24 27 30 39 15 21 28 14 20
56 56 53 49 48 44 45 51 56 56 56 52 23 18 12 19 21 10 11 17 22 18 15 22 20 15 17 15 19 20 18 20 18 25 24 27 23 18 20 24 29 62 17 10 25 28 35
51 54 53 47 45 44 45 47 55 56 56 49 13 8 11 16 12 6 3 9 10 16 22 13 13 11 14 13 11 10 13 11 20 21 12 5 12 13 12 5 16 22 24 39 51 46 48
Wind_Direction_500mb
348 348 348 348 347 346 346 348 345 342 338 332 326 317 308 296 284 278 274 274 276 285 289 289 295 305 306 248 250 197 183 162 160 175 194 197 196 207 224 226 234 231 254 258 248 249 244
350 350 348 348 347 346 346 346 347 347 343 337 330 324 314 303 291 280 278 276 278 281 282 283 294 303 285 251 154 169 143 147 165 179 192 198 208 219 277 255 223 202 236 259 233 228 223
356 353 350 348 348 347 347 346 346 347 347 342 336 329 321 311 302 294 284 282 281 282 279 287 292 290 257 263 166 159 158 147 171 180 191 216 225 212 239 230 236 260 253 238 239 228 232
9 5 360 354 350 348 348 346 344 344 347 345 340 333 327 322 312 299 294 289 284 282 281 285 274 248 282 167 174 175 168 171 176 182 207 190 204 233 263 309 235 240 234 251 197 171 227
18 15 11 6 0 355 350 348 344 341 342 343 342 337 333 328 313 299 291 286 290 288 279 274 244 222 222 183 185 184 180 175 183 196 205 209 213 226 195 236 226 196 243 216 145 223 142
18 15 13 10 8 3 357 350 345 341 336 335 339 342 339 334 317 300 295 300 289 280 255 209 223 231 216 208 173 181 183 184 180 190 201 221 215 212 214 217 255 176 221 179 272 147 212
16 14 11 9 7 4 1 357 349 343 336 327 330 338 344 337 319 292 311 312 288 221 220 231 188 254 141 143 152 169 179 186 189 197 208 206 231 209 31 1 354 10 304 318 113 91 274
14 12 9 7 4 2 360 357 353 346 338 329 318 318 324 327 319 270 280 247 5 335 268 222 226 230 184 175 175 170 181 198 197 226 177 214 221 58 353 304 296 289 277 270 106 216 268
9 7 6 5 3 1 359 356 352 346 340 332 316 301 306 315 306 252 253 271 308 317 258 168 183 186 176 186 168 175 191 220 215 229 218 257 77 101 277 248 286 278 288 290 302 178 237
7 5 3 2 1 360 358 355 352 348 342 333 321 289 288 307 291 252 262 265 302 292 258 149 183 152 170 207 166 169 200 238 229 250 209 284 110 255 269 277 304 305 321 327 285 274 262
6 4 2 1 360 359 357 355 352 349 343 335 324 294 258 259 264 259 286 286 293 272 284 158 137 136 188 215 138 179 202 226 261 207 258 153 182 220 262 335 333 286 343 286 275 265 265
5 4 3 2 360 357 356 355 353 349 344 336 323 296 245 257 260 247 272 279 301 232 194 166 152 193 190 205 190 141 187 226 317 290 219 296 91 278 328 308 268 303 274 256 245 246 244
4 3 3 3 1 358 355 354 353 351 345 337 324 298 234 218 208 226 250 262 225 241 92 155 185 193 220 175 192 217 191 207 230 214 218 193 217 154 262 260 207 246 261 260 224 217 234
2 1 1 1 1 360 356 353 352 352 346 337 324 300 237 222 227 257 254 236 248 237 208 95 167 210 223 194 231 216 243 251 207 271 283 256 196 175 154 271 320 293 306 289 305 296 45
360 359 359 359 360 1 359 353 351 351 349 339 328 291 235 242 223 234 237 234 216 257 239 155 181 229 219 207 263 201 240 255 310 156 262 278 248 121 177 224 254 195 248 357 301 277 268
357 357 356 357 358 359 0 356 351 350 352 343 333 249 197 212 207 206 236 255 276 329 345 224 231 236 254 202 196 227 252 190 238 254 260 308 265 184 145 242 231 257 342 250 218 263 269
355 355 355 355 356 358 359 360 354 349 355 349 345 237 177 194 191 223 239 243 240 153 262 262 259 268 236 275 234 265 238 116 191 177 237 298 243 165 184 219 245 189 225 227 292 296 297
352 352 352 352 354 355 357 360 0 353 352 6 300 260 122 173 224 234 240 240 273 280 202 262 262 280 268 253 250 250 254 231 151 192 218 124 280 260 223 152 281 276 279 288 260 262 236
350 350 351 351 351 353 356 358 1 2 352 349 313 308 108 197 243 240 239 248 241 253 246 234 242 247 240 260 253 249 245 63 171 218 248 176 230 253 239 202 210 248 234 252 266 277 268
346 347 348 349 350 350 353 356 359 2 355 350 313 313 98 246 266 319 310 258 276 216 265 259 254 217 215 237 225 270 235 170 227 220 98 59 269 262 281 308 325 220 227 251 244 257 267
343 344 346 347 349 350 351 354 357 1 7 8 338 39 7 300 328 326 294 288 286 277 202 229 238 231 232 245 235 225 254 203 195 163 210 227 251 264 269 274 277 276 268 260 235 247 261
341 342 344 345 347 349 349 352 355 360 9 9 351 346 331 287 280 287 264 258 269 282 294 231 234 257 235 243 242 266 234 229 224 189 221 220 259 276 277 276 278 266 259 260 265 264 254
340 341 343 344 345 347 349 351 354 358 8 4 346 321 286 295 253 259 328 324 306 327 277 258 281 288 265 294 249 261 257 249 244 254 222 222 247 254 266 270 266 266 258 260 258 250 251
340 341 343 343 343 345 347 349 352 354 360 358 329 315 289 300 308 333 335 294 280 284 278 293 301 285 295 311 288 275 279 238 243 245 238 260 249 251 265 270 266 264 249 284 300 299 278
337 337 339 343 342 343 345 348 349 350 349 353 338 314 311 301 317 286 341 299 297 265 238 265 289 336 316 287 265 246 236 232 236 243 239 234 243 274 272 263 269 261 212 229 254 265 265
328 329 331 332 338 340 342 346 347 347 345 347 333 267 279 301 37 338 308 289 302 326 285 216 304 309 272 263 235 245 254 254 230 179 244 278 258 251 261 265 268 270 281 322 272 258 279
321 322 327 332 324 329 336 341 344 344 344 345 324 292 261 279 290 335 354 341 323 318 292 289 358 298 245 259 258 265 265 279 286 279 246 221 251 241 251 268 297 348 335 221 240 286 355
319 324 327 324 326 318 321 331 338 340 341 340 305 262 230 286 297 332 336 344 336 312 314 11 291 185 258 253 269 278 279 279 292 284 279 286 302 229 252 270 249 6 358 358 347 357 8
330 333 332 322 318 320 316 318 327 334 337 335 349 277 241 252 308 310 320 332 347 340 305 289 319 295 327 309 355 316 309 293 299 291 35 290 350 323 23 3 14 32 44 4 359 1 354
Wind_Speed_850mb
43 44 45 46 46 45 44 43 42 40 38 35 32 28 25 23 23 23 24 24 24 23 23 22 20 19 18 16 19 7 9 14 24 28 27 26 32 35 27 28 26 28 29 28 24 24 20
42 42 45 46 46 45 43 43 44 41 37 34 31 27 24 22 20 20 21 21 21 21 21 20 21 20 14 24 7 10 16 19 18 22 25 28 22 30 20 28 26 16 28 28 22 24 21
41 42 43 44 45 46 45 43 42 41 39 35 30 27 23 21 20 18 18 19 20 20 20 20 23 18 16 17 16 18 22 18 18 17 18 22 19 19 16 15 23 20 23 25 26 27 19
46 46 45 45 45 46 46 45 42 40 39 37 32 27 23 20 18 17 17 17 19 19 22 21 17 9 16 15 17 24 23 16 18 13 5 11 18 23 19 11 15 26 27 27 27 4 19
52 52 51 50 48 46 46 46 44 40 37 35 32 27 23 18 15 14 14 15 20 22 17 13 4 10 13 16 21 28 27 22 17 15 13 10 18 28 22 24 26 19 28 23 22 8 11
54 55 55 56 55 54 51 47 44 41 37 33 30 27 23 18 15 12 12 18 16 13 10 8 11 13 17 26 22 32 29 15 21 18 19 23 23 25 27 27 20 20 17 11 16 20 20
54 56 57 58 58 57 55 52 48 44 39 32 27 24 21 17 14 10 12 14 7 8 22 26 20 20 27 19 24 32 32 25 16 26 27 32 28 12 25 21 23 14 14 16 8 10 22
54 55 56 57 58 58 57 56 53 49 42 35 27 22 20 18 15 10 9 9 12 14 19 27 19 18 12 22 31 31 31 28 23 32 16 17 15 19 8 12 18 18 23 25 9 6 16
53 54 56 58 58 58 58 57 55 52 47 38 29 22 20 18 15 14 14 18 14 17 17 22 23 26 27 31 35 35 35 32 24 21 20 16 25 9 10 10 15 22 17 28 20 10 19
55 56 57 57 59 60 60 60 58 54 50 41 30 22 18 15 10 9 19 10 14 15 12 27 26 14 24 23 12 13 32 26 11 18 20 9 17 7 13 16 5 24 17 18 21 25 26
57 58 59 60 61 62 62 61 61 59 52 43 34 22 19 16 16 14 5 11 14 6 9 37 22 14 17 28 29 21 23 23 28 13 6 5 17 17 17 10 17 28 19 22 25 27 30
59 60 61 61 62 63 64 63 62 62 56 46 35 22 22 20 21 20 15 15 14 15 9 15 20 21 26 19 16 17 26 22 13 13 14 18 8 8 12 15 15 21 28 28 27 26 26
62 63 63 65 66 66 67 66 64 63 60 47 34 22 26 26 7 9 11 15 15 29 6 23 20 21 29 16 16 18 25 26 24 23 30 24 26 12 11 22 22 23 27 23 23 25 29
64 65 65 66 68 70 70 69 66 63 62 48 33 25 23 31 18 14 13 19 29 33 34 17 8 13 21 18 22 14 22 27 17 29 28 22 22 24 14 10 18 17 14 20 33 25 2
64 66 67 67 69 72 73 73 70 65 63 48 34 16 16 17 26 20 22 23 33 29 11 13 15 19 25 16 16 18 28 29 10 9 24 25 21 17 7 5 10 8 19 12 18 32 26
64 66 68 69 70 72 74 75 74 67 64 51 22 15 14 16 19 16 20 32 27 1 8 9 25 14 23 21 21 22 26 10 8 7 11 6 20 18 16 12 21 21 19 14 20 23 34
65 67 69 72 73 71 72 75 75 71 63 45 9 15 5 12 14 26 22 32 28 14 10 15 24 29 15 26 12 29 15 18 10 16 12 7 12 13 9 22 26 19 22 17 17 20 24
65 66 68 70 72 72 71 73 75 74 63 46 13 10 2 15 21 31 27 35 14 17 17 21 16 30 22 15 18 21 19 10 15 12 20 6 9 21 29 7 8 21 28 25 18 26 16
62 64 66 68 70 72 71 69 71 70 65 61 23 14 2 9 20 24 32 33 16 23 18 19 18 22 14 18 15 19 12 4 15 15 7 12 14 18 32 23 15 21 22 21 20 20 31
60 61 62 65 66 69 72 70 66 65 52 38 21 8 4 15 17 19 27 18 24 27 20 20 19 13 15 21 15 13 16 15 17 21 16 2 19 24 26 33 14 18 26 26 25 22 28
59 59 59 60 62 65 68 70 66 66 48 30 16 8 7 14 11 15 20 25 30 27 21 15 20 22 23 22 22 24 23 19 16 18 15 16 25 29 33 35 33 29 30 33 34 34 34
57 57 57 57 58 59 62 66 67 64 56 18 23 16 28 34 18 19 17 23 26 26 6 15 24 28 29 30 26 26 26 22 20 30 23 25 25 29 36 35 37 38 35 40 38 36 34
57 56 54 54 55 56 58 60 63 62 59 22 28 18 22 29 13 13 6 10 17 11 23 33 31 21 26 26 24 32 30 14 15 18 24 26 26 25 35 37 38 35 27 38 38 39 33
56 55 54 52 51 52 54 56 57 58 54 33 25 22 20 18 12 10 13 18 20 22 24 30 25 23 24 20 18 20 24 24 24 27 27 28 28 26 30 36 41 29 34 27 25 34 32
58 56 53 51 51 51 51 52 54 55 53 46 23 12 18 16 30 15 10 16 20 19 20 18 16 12 19 22 19 27 25 29 37 39 34 31 22 28 28 32 42 37 23 24 30 31 29
59 58 56 50 48 49 52 52 52 54 55 50 24 13 12 20 22 22 21 20 14 15 16 15 3 11 11 15 21 30 28 29 15 22 24 19 20 20 30 40 42 31 30 28 20 27 23
57 56 53 52 46 45 49 54 53 55 55 51 18 12 8 24 11 19 18 17 19 17 14 15 4 15 8 16 20 24 25 24 20 30 17 17 23 28 24 27 30 39 15 21 28 14 20
56 56 53 49 48 44 45 51 56 56 56 52 23 18 12 19 21 10 11 17 22 18 15 22 20 15 17 15 19 20 18 20 18 25 24 27 23 18 20 24 29 62 17 10 25 28 35
51 54 53 47 45 44 45 47 55 56 56 49 13 8 11 16 12 6 3 9 10 16 22 13 13 11 14 13 11 10 13 11 20 21 12 5 12 13 12 5 16 22 24 39 51 46 48
Wind_Direction_850mb
348 348 348 348 347 346 346 348 345 342 338 332 326 317 308 296 284 278 274 274 276 285 289 289 295 305 306 248 250 197 183 162 160 175 194 197 196 207 224 226 234 231 254 258 248 249 244
350 350 348 348 347 346 346 346 347 347 343 337 330 324 314 303 291 280 278 276 278 281 282 283 294 303 285 251 154 169 143 147 165 179 192 198 208 219 277 255 223 202 236 259 233 228 223
356 353 350 348 348 347 347 346 346 347 347 342 336 329 321 311 302 294 284 282 281 282 279 287 292 290 257 263 166 159 158 147 171 180 191 216 225 212 239 230 236 260 253 238 239 228 232
9 5 360 354 350 348 348 346 344 344 347 345 340 333 327 322 312 299 294 289 284 282 281 285 274 248 282 167 174 175 168 171 176 182 207 190 204 233 263 309 235 240 234 251 197 171 227
18 15 11 6 0 355 350 348 344 341 342 343 342 337 333 328 313 299 291 286 290 288 279 274 244 222 222 183 185 184 180 175 183 196 205 209 213 226 195 236 226 196 243 216 145 223 142
18 15 13 10 8 3 357 350 345 341 336 335 339 342 339 334 317 300 295 300 289 280 255 209 223 231 216 208 173 181 183 184 180 190 201 221 215 212 214 217 255 176 221 179 272 147 212
16 14 11 9 7 4 1 357 349 343 336 327 330 338 344 337 319 292 311 312 288 221 220 231 188 254 141 143 152 169 179 186 189 197 208 206 231 209 31 1 354 10 304 318 113 91 274
14 12 9 7 4 2 360 357 353 346 338 329 318 318 324 327 319 270 280 247 5 335 268 222 226 230 184 175 175 170 181 198 197 226 177 214 221 58 353 304 296 289 277 270 106 216 268
9 7 6 5 3 1 359 356 352 346 340 332 316 301 306 315 306 252 253 271 308 317 258 168 183 186 176 186 168 175 191 220 215 229 218 257 77 101 277 248 286 278 288 290 302 178 237
7 5 3 2 1 360 358 355 352 348 342 333 321 289 288 307 291 252 262 265 302 292 258 149 183 152 170 207 166 169 200 238 229 250 209 284 110 255 269 277 304 305 321 327 285 274 262
6 4 2 1 360 359 357 355 352 349 343 335 324 294 258 259 264 259 286 286 293 272 284 158 137 136 188 215 138 179 202 226 261 207 258 153 182 220 262 335 333 286 343 286 275 265 265
5 4 3 2 360 357 356 355 353 349 344 336 323 296 245 257 260 247 272 279 301 232 194 166 152 193 190 205 190 141 187 226 317 290 219 296 91 278 328 308 268 303 274 256 245 246 244
4 3 3 3 1 358 355 354 353 351 345 337 324 298 234 218 208 226 250 262 225 241 92 155 185 193 220 175 192 217 191 207 230 214 218 193 217 154 262 260 207 246 261 260 224 217 234
2 1 1 1 1 360 356 353 352 352 346 337 324 300 237 222 227 257 254 236 248 237 208 95 167 210 223 194 231 216 243 251 207 271 283 256 196 175 154 271 320 293 306 289 305 296 45
360 359 359 359 360 1 359 353 351 351 349 339 328 291 235 242 223 234 237 234 216 257 239 155 181 229 219 207 263 201 240 255 310 156 262 278 248 121 177 224 254 195 248 357 301 277 268
357 357 356 357 358 359 0 356 351 350 352 343 333 249 197 212 207 206 236 255 276 329 345 224 231 236 254 202 196 227 252 190 238 254 260 308 265 184 145 242 231 257 342 250 218 263 269
355 355 355 355 356 358 359 360 354 349 355 349 345 237 177 194 191 223 239 243 240 153 262 262 259 268 236 275 234 265 238 116 191 177 237 298 243 165 184 219 245 189 225 227 292 296 297
352 352 352 352 354 355 357 360 0 353 352 6 300 260 122 173 224 234 240 240 273 280 202 262 262 280 268 253 250 250 254 231 151 192 218 124 280 260 223 152 281 276 279 288 260 262 236
350 350 351 351 351 353 356 358 1 2 352 349 313 308 108 197 243 240 239 248 241 253 246 234 242 247 240 260 253 249 245 63 171 218 248 176 230 253 239 202 210 248 234 252 266 277 268
346 347 348 349 350 350 353 356 359 2 355 350 313 313 98 246 266 319 310 258 276 216 265 259 254 217 215 237 225 270 235 170 227 220 98 59 269 262 281 308 325 220 227 251 244 257 267
343 344 346 347 349 350 351 354 357 1 7 8 338 39 7 300 328 326 294 288 286 277 202 229 238 231 232 245 235 225 254 203 195 163 210 227 251 264 269 274 277 276 268 260 235 247 261
341 342 344 345 347 349 349 352 355 360 9 9 351 346 331 287 280 287 264 258 269 282 294 231 234 257 235 243 242 266 234 229 224 189 221 220 259 276 277 276 278 266 259 260 265 264 254
340 341 343 344 345 347 349 351 354 358 8 4 346 321 286 295 253 259 328 324 306 327 277 258 281 288 265 294 249 261 257 249 244 254 222 222 247 254 266 270 266 266 258 260 258 250 251
340 341 343 343 343 345 347 349 352 354 360 358 329 315 289 300 308 333 335 294 280 284 278 293 301 285 295 311 288 275 279 238 243 245 238 260 249 251 265 270 266 264 249 284 300 299 278
337 337 339 343 342 343 345 348 349 350 349 353 338 314 311 301 317 286 341 299 297 265 238 265 289 336 316 287 265 246 236 232 236 243 239 234 243 274 272 263 269 261 212 229 254 265 265
328 329 331 332 338 340 342 346 347 347 345 347 333 267 279 301 37 338 308 289 302 326 285 216 304 309 272 263 235 245 254 254 230 179 244 278 258 251 261 265 268 270 281 322 272 258 279
321 322 327 332 324 329 336 341 344 344 344 345 324 292 261 279 290 335 354 341 323 318 292 289 358 298 245 259 258 265 265 279 286 279 246 221 251 241 251 268 297 348 335 221 240 286 355
319 324 327 324 326 318 321 331 338 340 341 340 305 262 230 286 297 332 336 344 336 312 314 11 291 185 258 253 269 278 279 279 292 284 279 286 302 229 252 270 249 6 358 358 347 357 8
330 333 332 322 318 320 316 318 327 334 337 335 349 277 241 252 308 310 320 332 347 340 305 289 319 295 327 309 355 316 309 293 299 291 35 290 350 323 23 3 14 32 44 4 359 1 354